TimeAKDT,TemperatureF,Dew PointF,Humidity,Sea Level PressureIn,VisibilityMPH,Wind Direction,Wind SpeedMPH,Gust SpeedMPH,PrecipitationIn,Events,Conditions,WindDirDegrees,DateUTC
12:54 AM,27.0,24.1,89,29.76,10.0,NNE,5.8,-,N/A,,Clear,20,2013-10-02 08:54:00
1:54 AM,25.0,23.0,92,29.75,10.0,NE,5.8,-,N/A,,Clear,40,2013-10-02 09:54:00
2:54 AM,25.0,23.0,92,29.74,10.0,NNE,4.6,-,N/A,,Clear,20,2013-10-02 10:54:00
3:54 AM,23.0,21.0,92,29.74,10.0,North,4.6,-,N/A,,Clear,10,2013-10-02 11:54:00
4:54 AM,21.9,19.9,92,29.73,10.0,North,4.6,-,N/A,,Clear,10,2013-10-02 12:54:00
5:54 AM,21.9,19.9,92,29.72,10.0,North,5.8,-,N/A,,Clear,10,2013-10-02 13:54:00
6:54 AM,21.0,19.0,92,29.72,10.0,North,4.6,-,N/A,,Clear,360,2013-10-02 14:54:00
7:54 AM,19.9,18.0,92,29.71,10.0,North,3.5,-,N/A,,Partly Cloudy,10,2013-10-02 15:54:00
8:54 AM,21.0,19.0,92,29.71,10.0,North,3.5,-,N/A,,Partly Cloudy,360,2013-10-02 16:54:00
9:54 AM,27.0,24.1,89,29.70,10.0,North,3.5,-,N/A,,Scattered Clouds,10,2013-10-02 17:54:00
10:54 AM,36.0,30.9,82,29.69,10.0,NNE,3.5,-,N/A,,Mostly Cloudy,20,2013-10-02 18:54:00
11:54 AM,43.0,32.0,65,29.68,10.0,ENE,4.6,-,N/A,,Mostly Cloudy,60,2013-10-02 19:54:00
12:54 PM,46.9,28.0,48,29.66,10.0,NE,5.8,-,N/A,,Clear,50,2013-10-02 20:54:00
1:54 PM,48.9,28.0,44,29.65,10.0,ENE,9.2,-,N/A,,Scattered Clouds,70,2013-10-02 21:54:00
2:54 PM,51.1,30.0,44,29.64,10.0,East,10.4,18.4,N/A,,Scattered Clouds,80,2013-10-02 22:54:00
3:54 PM,52.0,30.9,45,29.62,10.0,ESE,16.1,21.9,N/A,,Scattered Clouds,110,2013-10-02 23:54:00
4:54 PM,52.0,30.9,45,29.59,10.0,East,13.8,17.3,N/A,,Scattered Clouds,90,2013-10-03 00:54:00
5:54 PM,51.1,32.0,48,29.58,10.0,East,16.1,21.9,N/A,,Scattered Clouds,100,2013-10-03 01:54:00
6:54 PM,48.9,33.1,54,29.57,10.0,East,13.8,20.7,N/A,,Scattered Clouds,100,2013-10-03 02:54:00
7:54 PM,45.0,35.1,68,29.57,10.0,East,10.4,-,N/A,,Scattered Clouds,100,2013-10-03 03:54:00
8:54 PM,44.1,32.0,63,29.57,10.0,East,13.8,21.9,N/A,,Scattered Clouds,80,2013-10-03 04:54:00
9:54 PM,45.0,32.0,60,29.57,10.0,East,12.7,20.7,N/A,,Scattered Clouds,80,2013-10-03 05:54:00
10:54 PM,45.0,34.0,65,29.57,10.0,NNE,6.9,18.4,N/A,,Scattered Clouds,30,2013-10-03 06:54:00
11:54 PM,42.1,30.0,62,29.56,10.0,NE,8.1,-,N/A,,Partly Cloudy,40,2013-10-03 07:54:00